QPF
0.01 0.02 0.01 0.01 0.01 0.01 0.00 0.00 0.00 0.00 0.01 0.03 0.03 0.03 0.05 0.05 0.05 0.03 0.03 0.02 0.02 0.03 0.04 0.04 0.05 0.06 0.06 0.07 0.05 0.04 0.03 0.04 0.04 0.03 0.02 0.02 0.02 0.02 0.01 0.01 0.02 0.03 0.03
0.01 0.02 0.03 0.02 0.02 0.01 0.01 0.00 0.00 0.00 0.01 0.01 0.02 0.03 0.04 0.05 0.06 0.05 0.03 0.03 0.03 0.03 0.03 0.04 0.04 0.04 0.04 0.05 0.05 0.05 0.04 0.04 0.03 0.04 0.04 0.03 0.02 0.02 0.03 0.02 0.02 0.03 0.04
0.01 0.01 0.02 0.03 0.01 0.01 0.01 0.01 0.01 0.00 0.00 0.00 0.00 0.01 0.03 0.04 0.05 0.09 0.08 0.05 0.03 0.03 0.02 0.03 0.03 0.03 0.03 0.03 0.04 0.05 0.05 0.05 0.05 0.05 0.04 0.03 0.03 0.04 0.04 0.04 0.04 0.03 0.03
0.01 0.01 0.02 0.02 0.02 0.01 0.01 0.01 0.01 0.01 0.01 0.00 0.00 0.01 0.01 0.02 0.03 0.07 0.12 0.10 0.05 0.02 0.02 0.02 0.02 0.02 0.02 0.02 0.03 0.04 0.04 0.05 0.06 0.06 0.05 0.04 0.03 0.04 0.05 0.05 0.04 0.04 0.04
0.01 0.01 0.02 0.02 0.02 0.02 0.01 0.01 0.01 0.01 0.01 0.01 0.01 0.01 0.01 0.01 0.02 0.05 0.08 0.09 0.07 0.05 0.03 0.02 0.02 0.02 0.02 0.02 0.02 0.02 0.02 0.02 0.03 0.05 0.06 0.06 0.04 0.04 0.04 0.04 0.04 0.04 0.04
0.02 0.01 0.02 0.03 0.03 0.02 0.01 0.01 0.01 0.01 0.02 0.02 0.01 0.01 0.01 0.01 0.01 0.02 0.04 0.06 0.07 0.06 0.04 0.03 0.02 0.02 0.02 0.03 0.03 0.03 0.03 0.02 0.02 0.03 0.04 0.04 0.05 0.05 0.05 0.05 0.05 0.04 0.04
0.03 0.03 0.03 0.03 0.02 0.01 0.01 0.01 0.01 0.01 0.02 0.02 0.01 0.01 0.01 0.01 0.01 0.02 0.02 0.02 0.04 0.05 0.05 0.03 0.02 0.02 0.02 0.03 0.04 0.06 0.06 0.05 0.03 0.03 0.02 0.02 0.03 0.05 0.06 0.06 0.06 0.04 0.03
0.03 0.03 0.02 0.01 0.01 0.02 0.02 0.02 0.02 0.02 0.02 0.03 0.03 0.02 0.02 0.01 0.01 0.02 0.02 0.02 0.02 0.03 0.04 0.04 0.03 0.02 0.01 0.01 0.02 0.03 0.05 0.05 0.05 0.04 0.04 0.03 0.03 0.03 0.05 0.07 0.07 0.05 0.03
0.02 0.02 0.01 0.01 0.02 0.03 0.03 0.03 0.02 0.02 0.02 0.02 0.02 0.02 0.02 0.02 0.01 0.01 0.01 0.01 0.02 0.03 0.03 0.03 0.03 0.03 0.02 0.01 0.01 0.02 0.03 0.05 0.06 0.06 0.06 0.05 0.04 0.04 0.04 0.06 0.07 0.07 0.05
0.02 0.02 0.02 0.02 0.02 0.02 0.02 0.02 0.02 0.01 0.01 0.02 0.01 0.02 0.02 0.02 0.01 0.01 0.01 0.02 0.02 0.02 0.03 0.03 0.03 0.03 0.03 0.03 0.02 0.01 0.02 0.02 0.03 0.05 0.06 0.05 0.05 0.04 0.02 0.02 0.04 0.06 0.05
0.02 0.02 0.02 0.01 0.01 0.01 0.01 0.01 0.02 0.02 0.01 0.02 0.01 0.01 0.01 0.01 0.01 0.01 0.02 0.03 0.03 0.03 0.02 0.01 0.02 0.03 0.04 0.04 0.04 0.02 0.02 0.01 0.01 0.02 0.04 0.05 0.05 0.04 0.04 0.03 0.02 0.03 0.04
0.01 0.01 0.01 0.01 0.01 0.01 0.01 0.01 0.02 0.02 0.02 0.02 0.02 0.01 0.02 0.01 0.01 0.01 0.01 0.02 0.02 0.02 0.02 0.01 0.01 0.02 0.03 0.04 0.04 0.04 0.03 0.02 0.02 0.02 0.02 0.03 0.04 0.04 0.04 0.04 0.04 0.03 0.03
0.01 0.01 0.02 0.02 0.01 0.01 0.01 0.01 0.01 0.02 0.02 0.02 0.02 0.02 0.02 0.02 0.02 0.02 0.02 0.02 0.01 0.01 0.01 0.01 0.01 0.01 0.01 0.02 0.03 0.03 0.03 0.02 0.02 0.02 0.02 0.02 0.03 0.03 0.03 0.03 0.03 0.03 0.03
0.01 0.01 0.02 0.02 0.02 0.01 0.01 0.00 0.01 0.01 0.02 0.02 0.02 0.02 0.02 0.02 0.03 0.03 0.03 0.02 0.02 0.02 0.01 0.02 0.01 0.01 0.01 0.01 0.01 0.02 0.03 0.03 0.03 0.03 0.03 0.02 0.03 0.04 0.04 0.04 0.03 0.03 0.03
0.01 0.01 0.02 0.03 0.03 0.02 0.01 0.01 0.01 0.01 0.02 0.02 0.02 0.02 0.02 0.03 0.03 0.04 0.04 0.02 0.01 0.01 0.01 0.01 0.01 0.01 0.01 0.01 0.01 0.02 0.02 0.02 0.03 0.03 0.04 0.04 0.03 0.04 0.05 0.04 0.03 0.04 0.04
0.02 0.02 0.03 0.03 0.02 0.02 0.01 0.01 0.01 0.01 0.02 0.01 0.02 0.03 0.03 0.03 0.03 0.04 0.04 0.02 0.01 0.01 0.01 0.01 0.01 0.01 0.01 0.01 0.02 0.02 0.02 0.03 0.03 0.03 0.04 0.05 0.05 0.05 0.05 0.05 0.05 0.04 0.04
0.01 0.00 0.00 0.01 0.02 0.02 0.01 0.01 0.01 0.02 0.02 0.02 0.02 0.03 0.02 0.02 0.02 0.03 0.04 0.02 0.01 0.01 0.01 0.01 0.01 0.01 0.01 0.01 0.01 0.01 0.01 0.02 0.03 0.03 0.03 0.03 0.03 0.03 0.04 0.05 0.06 0.05 0.04
0.00 0.00 0.00 0.00 0.01 0.01 0.01 0.02 0.02 0.02 0.02 0.03 0.02 0.02 0.01 0.02 0.03 0.04 0.05 0.04 0.03 0.02 0.01 0.01 0.01 0.01 0.01 0.01 0.01 0.01 0.00 0.01 0.01 0.02 0.03 0.04 0.03 0.02 0.03 0.04 0.05 0.05 0.04
0.00 0.00 0.00 0.00 0.00 0.00 0.00 0.01 0.01 0.02 0.02 0.02 0.02 0.01 0.01 0.01 0.03 0.05 0.06 0.05 0.05 0.04 0.03 0.01 0.01 0.01 0.02 0.02 0.02 0.01 0.01 0.01 0.01 0.01 0.01 0.02 0.03 0.03 0.02 0.03 0.04 0.03 0.04
0.00 0.00 0.00 0.00 0.00 0.00 0.00 0.00 0.01 0.01 0.01 0.01 0.02 0.01 0.01 0.01 0.02 0.03 0.04 0.04 0.04 0.03 0.03 0.03 0.02 0.02 0.02 0.02 0.02 0.03 0.02 0.01 0.01 0.01 0.02 0.02 0.02 0.02 0.03 0.02 0.03 0.03 0.03
0.00 0.00 0.00 0.00 0.00 0.00 0.00 0.00 0.00 0.00 0.01 0.02 0.02 0.02 0.01 0.01 0.01 0.02 0.03 0.03 0.03 0.03 0.02 0.02 0.03 0.03 0.02 0.01 0.02 0.03 0.03 0.03 0.02 0.01 0.01 0.01 0.02 0.03 0.03 0.03 0.03 0.03 0.04
0.00 0.00 0.01 0.01 0.00 0.00 0.00 0.01 0.01 0.01 0.02 0.02 0.02 0.02 0.01 0.01 0.01 0.02 0.02 0.03 0.03 0.03 0.02 0.02 0.03 0.03 0.02 0.01 0.02 0.04 0.05 0.04 0.03 0.02 0.02 0.02 0.03 0.03 0.04 0.04 0.03 0.03 0.04
0.01 0.01 0.00 0.00 0.00 0.01 0.01 0.01 0.01 0.01 0.01 0.02 0.02 0.02 0.01 0.02 0.01 0.01 0.02 0.02 0.02 0.02 0.02 0.02 0.02 0.03 0.03 0.03 0.03 0.05 0.05 0.04 0.03 0.03 0.03 0.04 0.04 0.04 0.04 0.04 0.04 0.04 0.03
0.01 0.01 0.00 0.00 0.00 0.00 0.01 0.01 0.01 0.01 0.01 0.01 0.02 0.02 0.01 0.02 0.02 0.02 0.02 0.02 0.02 0.02 0.02 0.02 0.02 0.03 0.03 0.03 0.03 0.04 0.04 0.05 0.04 0.03 0.03 0.03 0.03 0.02 0.02 0.02 0.02 0.02 0.03
0.01 0.01 0.00 0.00 0.00 0.01 0.01 0.01 0.01 0.01 0.01 0.02 0.02 0.01 0.01 0.02 0.02 0.02 0.02 0.02 0.02 0.03 0.03 0.03 0.03 0.03 0.03 0.03 0.04 0.04 0.04 0.05 0.05 0.04 0.03 0.03 0.03 0.03 0.02 0.02 0.02 0.02 0.02
0.01 0.01 0.01 0.01 0.01 0.01 0.01 0.01 0.02 0.02 0.02 0.02 0.02 0.01 0.01 0.01 0.01 0.01 0.02 0.02 0.02 0.02 0.02 0.03 0.02 0.02 0.02 0.02 0.03 0.03 0.04 0.05 0.06 0.05 0.04 0.03 0.03 0.02 0.02 0.02 0.01 0.01 0.01
MSLP
1008.91 1009.00 1009.14 1009.33 1009.59 1009.94 1010.38 1010.92 1011.55 1012.23 1012.95 1013.64 1014.26 1014.80 1015.22 1015.53 1015.75 1015.90 1016.02 1016.16 1016.34 1016.58 1016.89 1017.27 1017.71 1018.19 1018.71 1019.24 1019.78 1020.31 1020.82 1021.29 1021.73 1022.10 1022.40 1022.61 1022.73 1022.76 1022.72 1022.62 1022.49 1022.34 1022.20
1008.50 1008.59 1008.73 1008.91 1009.17 1009.52 1009.98 1010.56 1011.25 1012.01 1012.80 1013.57 1014.28 1014.87 1015.33 1015.65 1015.86 1015.99 1016.09 1016.21 1016.38 1016.62 1016.95 1017.36 1017.82 1018.33 1018.86 1019.38 1019.90 1020.41 1020.89 1021.35 1021.78 1022.17 1022.50 1022.77 1022.95 1023.04 1023.06 1023.01 1022.91 1022.78 1022.64
1007.91 1008.03 1008.20 1008.41 1008.70 1009.08 1009.58 1010.19 1010.93 1011.75 1012.61 1013.45 1014.21 1014.85 1015.35 1015.69 1015.91 1016.04 1016.14 1016.25 1016.43 1016.68 1017.02 1017.44 1017.92 1018.43 1018.95 1019.45 1019.94 1020.41 1020.86 1021.30 1021.73 1022.13 1022.51 1022.83 1023.08 1023.24 1023.33 1023.33 1023.27 1023.16 1023.03
1007.16 1007.34 1007.58 1007.86 1008.20 1008.64 1009.17 1009.83 1010.61 1011.46 1012.36 1013.24 1014.04 1014.72 1015.25 1015.63 1015.87 1016.02 1016.14 1016.27 1016.46 1016.74 1017.10 1017.53 1018.01 1018.51 1019.00 1019.47 1019.92 1020.34 1020.76 1021.18 1021.61 1022.03 1022.44 1022.81 1023.13 1023.36 1023.51 1023.56 1023.54 1023.45 1023.33
1006.30 1006.57 1006.90 1007.28 1007.70 1008.20 1008.79 1009.48 1010.27 1011.15 1012.06 1012.95 1013.77 1014.48 1015.04 1015.45 1015.73 1015.92 1016.08 1016.26 1016.49 1016.79 1017.17 1017.61 1018.09 1018.58 1019.04 1019.48 1019.89 1020.27 1020.65 1021.05 1021.47 1021.90 1022.33 1022.75 1023.11 1023.41 1023.60 1023.70 1023.71 1023.64 1023.52
1005.39 1005.77 1006.22 1006.70 1007.22 1007.79 1008.42 1009.14 1009.94 1010.81 1011.72 1012.61 1013.43 1014.15 1014.74 1015.19 1015.52 1015.76 1015.98 1016.21 1016.48 1016.82 1017.23 1017.69 1018.17 1018.64 1019.09 1019.50 1019.87 1020.22 1020.58 1020.95 1021.35 1021.78 1022.22 1022.66 1023.05 1023.38 1023.61 1023.74 1023.77 1023.71 1023.59
1004.51 1005.00 1005.55 1006.14 1006.75 1007.39 1008.07 1008.81 1009.62 1010.47 1011.36 1012.23 1013.05 1013.78 1014.39 1014.88 1015.26 1015.57 1015.85 1016.13 1016.46 1016.84 1017.28 1017.76 1018.24 1018.71 1019.15 1019.54 1019.89 1020.22 1020.55 1020.89 1021.27 1021.69 1022.12 1022.56 1022.95 1023.29 1023.54 1023.68 1023.73 1023.69 1023.58
1003.70 1004.28 1004.93 1005.62 1006.31 1007.02 1007.74 1008.50 1009.30 1010.14 1011.00 1011.86 1012.67 1013.40 1014.04 1014.57 1015.00 1015.37 1015.70 1016.05 1016.42 1016.84 1017.30 1017.80 1018.29 1018.77 1019.20 1019.59 1019.93 1020.25 1020.56 1020.89 1021.25 1021.64 1022.05 1022.45 1022.84 1023.17 1023.41 1023.57 1023.63 1023.60 1023.51
1003.02 1003.66 1004.39 1005.14 1005.90 1006.66 1007.42 1008.19 1008.99 1009.82 1010.67 1011.51 1012.32 1013.07 1013.73 1014.29 1014.77 1015.18 1015.57 1015.95 1016.36 1016.81 1017.29 1017.79 1018.30 1018.78 1019.23 1019.62 1019.97 1020.30 1020.60 1020.92 1021.25 1021.61 1021.98 1022.36 1022.71 1023.02 1023.26 1023.42 1023.50 1023.50 1023.43
1002.50 1003.18 1003.94 1004.74 1005.54 1006.32 1007.10 1007.89 1008.70 1009.53 1010.37 1011.22 1012.03 1012.79 1013.47 1014.07 1014.58 1015.03 1015.45 1015.86 1016.28 1016.74 1017.23 1017.74 1018.25 1018.75 1019.21 1019.62 1019.99 1020.33 1020.64 1020.95 1021.26 1021.59 1021.93 1022.27 1022.59 1022.87 1023.10 1023.27 1023.37 1023.40 1023.38
1002.17 1002.86 1003.63 1004.43 1005.23 1006.03 1006.82 1007.61 1008.43 1009.26 1010.12 1010.97 1011.80 1012.58 1013.28 1013.90 1014.44 1014.91 1015.34 1015.75 1016.18 1016.63 1017.11 1017.62 1018.14 1018.64 1019.12 1019.57 1019.96 1020.32 1020.65 1020.96 1021.26 1021.57 1021.87 1022.18 1022.47 1022.73 1022.95 1023.13 1023.26 1023.34 1023.37
1002.06 1002.72 1003.46 1004.24 1005.02 1005.80 1006.59 1007.38 1008.20 1009.04 1009.90 1010.77 1011.61 1012.41 1013.13 1013.76 1014.31 1014.79 1015.22 1015.63 1016.04 1016.48 1016.95 1017.45 1017.97 1018.48 1018.98 1019.45 1019.88 1020.26 1020.61 1020.92 1021.22 1021.51 1021.80 1022.07 1022.34 1022.59 1022.82 1023.01 1023.17 1023.30 1023.39
1002.14 1002.76 1003.45 1004.18 1004.92 1005.67 1006.42 1007.20 1008.01 1008.86 1009.73 1010.60 1011.45 1012.26 1012.99 1013.63 1014.18 1014.65 1015.08 1015.48 1015.88 1016.30 1016.75 1017.24 1017.76 1018.28 1018.80 1019.29 1019.74 1020.15 1020.51 1020.84 1021.14 1021.42 1021.69 1021.95 1022.20 1022.45 1022.68 1022.89 1023.09 1023.26 1023.41
1002.37 1002.95 1003.59 1004.25 1004.93 1005.63 1006.34 1007.09 1007.88 1008.72 1009.58 1010.45 1011.29 1012.10 1012.83 1013.47 1014.02 1014.49 1014.91 1015.31 1015.70 1016.11 1016.55 1017.03 1017.55 1018.07 1018.59 1019.10 1019.56 1019.99 1020.37 1020.70 1021.01 1021.28 1021.54 1021.79 1022.04 1022.28 1022.52 1022.75 1022.98 1023.19 1023.38
1002.68 1003.22 1003.80 1004.41 1005.03 1005.66 1006.33 1007.04 1007.80 1008.60 1009.44 1010.29 1011.12 1011.91 1012.63 1013.26 1013.81 1014.29 1014.72 1015.11 1015.51 1015.92 1016.36 1016.84 1017.35 1017.87 1018.40 1018.90 1019.37 1019.80 1020.18 1020.52 1020.82 1021.10 1021.35 1021.60 1021.84 1022.09 1022.33 1022.58 1022.82 1023.06 1023.28
1002.97 1003.48 1004.02 1004.57 1005.14 1005.73 1006.35 1007.01 1007.73 1008.49 1009.29 1010.11 1010.91 1011.67 1012.38 1013.01 1013.56 1014.05 1014.49 1014.91 1015.32 1015.75 1016.20 1016.68 1017.18 1017.70 1018.21 1018.70 1019.16 1019.58 1019.96 1020.29 1020.59 1020.86 1021.12 1021.37 1021.61 1021.86 1022.10 1022.36 1022.61 1022.86 1023.09
1003.15 1003.64 1004.14 1004.67 1005.20 1005.75 1006.34 1006.96 1007.64 1008.36 1009.12 1009.89 1010.65 1011.39 1012.07 1012.70 1013.26 1013.77 1014.24 1014.69 1015.13 1015.58 1016.05 1016.54 1017.04 1017.54 1018.03 1018.50 1018.94 1019.34 1019.70 1020.02 1020.32 1020.59 1020.85 1021.10 1021.35 1021.60 1021.85 1022.10 1022.35 1022.59 1022.82
1003.11 1003.59 1004.09 1004.60 1005.12 1005.66 1006.23 1006.84 1007.49 1008.17 1008.89 1009.62 1010.35 1011.05 1011.72 1012.34 1012.92 1013.46 1013.97 1014.45 1014.93 1015.42 1015.91 1016.40 1016.89 1017.37 1017.84 1018.28 1018.69 1019.06 1019.41 1019.72 1020.01 1020.29 1020.56 1020.82 1021.08 1021.33 1021.57 1021.82 1022.05 1022.28 1022.50
1002.83 1003.30 1003.80 1004.31 1004.85 1005.40 1005.98 1006.59 1007.23 1007.90 1008.59 1009.29 1009.99 1010.67 1011.33 1011.95 1012.55 1013.12 1013.66 1014.19 1014.72 1015.23 1015.74 1016.23 1016.71 1017.17 1017.61 1018.01 1018.39 1018.74 1019.07 1019.39 1019.69 1019.98 1020.26 1020.54 1020.81 1021.07 1021.31 1021.54 1021.77 1021.97 1022.17
1002.33 1002.79 1003.28 1003.82 1004.37 1004.96 1005.57 1006.20 1006.85 1007.52 1008.20 1008.88 1009.57 1010.24 1010.89 1011.53 1012.15 1012.75 1013.33 1013.90 1014.46 1015.00 1015.51 1016.01 1016.48 1016.91 1017.32 1017.70 1018.05 1018.39 1018.72 1019.04 1019.36 1019.67 1019.98 1020.28 1020.57 1020.83 1021.08 1021.30 1021.50 1021.69 1021.86
1001.70 1002.12 1002.61 1003.15 1003.74 1004.36 1005.00 1005.67 1006.34 1007.03 1007.72 1008.41 1009.09 1009.76 1010.42 1011.07 1011.71 1012.34 1012.96 1013.56 1014.14 1014.70 1015.23 1015.72 1016.17 1016.59 1016.97 1017.33 1017.67 1018.01 1018.35 1018.69 1019.03 1019.38 1019.72 1020.05 1020.36 1020.63 1020.88 1021.09 1021.28 1021.44 1021.59
1001.05 1001.42 1001.88 1002.41 1003.01 1003.66 1004.33 1005.03 1005.73 1006.44 1007.15 1007.85 1008.54 1009.23 1009.91 1010.58 1011.25 1011.90 1012.55 1013.17 1013.77 1014.34 1014.87 1015.35 1015.79 1016.20 1016.57 1016.93 1017.28 1017.63 1017.99 1018.36 1018.74 1019.12 1019.50 1019.86 1020.18 1020.47 1020.71 1020.92 1021.09 1021.23 1021.36
1000.51 1000.79 1001.20 1001.70 1002.28 1002.93 1003.61 1004.33 1005.05 1005.78 1006.51 1007.23 1007.94 1008.65 1009.35 1010.05 1010.74 1011.42 1012.09 1012.73 1013.35 1013.92 1014.45 1014.93 1015.37 1015.78 1016.15 1016.52 1016.88 1017.26 1017.65 1018.06 1018.48 1018.90 1019.31 1019.69 1020.03 1020.32 1020.56 1020.75 1020.91 1021.04 1021.16
1000.16 1000.34 1000.66 1001.09 1001.62 1002.23 1002.90 1003.60 1004.33 1005.07 1005.81 1006.54 1007.28 1008.01 1008.74 1009.46 1010.18 1010.89 1011.58 1012.25 1012.87 1013.46 1014.00 1014.48 1014.93 1015.34 1015.73 1016.12 1016.51 1016.92 1017.35 1017.79 1018.25 1018.69 1019.12 1019.51 1019.86 1020.15 1020.38 1020.56 1020.71 1020.83 1020.95
1000.04 1000.11 1000.31 1000.65 1001.09 1001.63 1002.24 1002.90 1003.60 1004.32 1005.06 1005.81 1006.56 1007.31 1008.07 1008.83 1009.58 1010.32 1011.04 1011.72 1012.37 1012.97 1013.52 1014.02 1014.48 1014.91 1015.33 1015.74 1016.16 1016.61 1017.06 1017.54 1018.01 1018.48 1018.91 1019.30 1019.64 1019.92 1020.14 1020.32 1020.47 1020.60 1020.73
1000.14 1000.09 1000.17 1000.37 1000.70 1001.13 1001.65 1002.24 1002.88 1003.57 1004.29 1005.03 1005.80 1006.57 1007.36 1008.15 1008.94 1009.71 1010.46 1011.17 1011.84 1012.46 1013.02 1013.55 1014.03 1014.49 1014.93 1015.37 1015.82 1016.29 1016.77 1017.26 1017.74 1018.20 1018.63 1019.01 1019.34 1019.61 1019.82 1020.00 1020.16 1020.31 1020.47
Thickness
5699 5700 5700 5699 5698 5697 5696 5696 5694 5693 5692 5691 5689 5687 5686 5685 5685 5685 5684 5684 5684 5684 5683 5682 5681 5680 5679 5678 5678 5677 5675 5674 5674 5673 5671 5672 5674 5675 5675 5675 5676 5677 5677
5694 5695 5695 5694 5693 5693 5692 5691 5690 5688 5687 5686 5685 5683 5682 5681 5680 5680 5679 5679 5679 5678 5678 5677 5675 5675 5674 5673 5672 5671 5669 5668 5668 5667 5664 5662 5664 5667 5669 5669 5670 5670 5671
5692 5691 5692 5691 5690 5688 5687 5687 5685 5684 5683 5682 5680 5679 5677 5675 5674 5673 5673 5673 5673 5673 5672 5672 5671 5669 5669 5667 5667 5667 5665 5663 5662 5662 5660 5657 5655 5657 5661 5662 5663 5664 5665
5691 5690 5690 5688 5687 5686 5685 5684 5682 5680 5679 5678 5675 5673 5671 5668 5668 5668 5668 5668 5668 5667 5667 5666 5665 5664 5663 5662 5662 5662 5661 5660 5657 5656 5656 5655 5654 5652 5651 5654 5656 5658 5658
5690 5689 5688 5687 5686 5684 5682 5680 5678 5676 5675 5673 5671 5669 5667 5665 5664 5663 5662 5662 5662 5662 5661 5661 5660 5659 5658 5657 5657 5656 5656 5655 5653 5651 5650 5649 5648 5648 5647 5646 5648 5650 5652
5689 5688 5686 5685 5682 5680 5678 5676 5673 5671 5670 5669 5667 5665 5663 5661 5659 5658 5657 5656 5656 5656 5656 5655 5654 5653 5653 5652 5652 5651 5650 5649 5648 5647 5646 5645 5644 5643 5643 5641 5641 5641 5644
5686 5684 5682 5680 5678 5676 5674 5672 5669 5667 5666 5665 5663 5661 5659 5657 5655 5653 5652 5651 5650 5649 5649 5649 5648 5647 5647 5646 5646 5645 5644 5644 5643 5642 5642 5642 5641 5641 5640 5639 5636 5636 5638
5684 5683 5681 5678 5676 5674 5672 5669 5666 5664 5662 5660 5659 5657 5656 5653 5651 5650 5648 5646 5645 5645 5644 5643 5642 5641 5641 5640 5640 5639 5638 5638 5637 5637 5637 5637 5637 5637 5637 5636 5633 5631 5631
5682 5680 5678 5675 5673 5671 5669 5667 5664 5661 5659 5657 5655 5653 5651 5649 5647 5645 5644 5642 5641 5640 5638 5637 5636 5635 5635 5634 5633 5632 5632 5631 5631 5631 5631 5631 5632 5632 5633 5632 5632 5629 5626
5677 5675 5673 5672 5670 5669 5666 5663 5661 5658 5655 5653 5651 5649 5646 5644 5642 5640 5638 5636 5635 5633 5632 5631 5630 5629 5628 5628 5627 5626 5626 5626 5625 5625 5625 5625 5626 5626 5627 5627 5627 5627 5625
5673 5671 5669 5667 5665 5663 5661 5658 5656 5653 5650 5648 5646 5644 5641 5638 5636 5634 5632 5630 5629 5627 5626 5624 5623 5622 5621 5621 5621 5620 5619 5619 5619 5620 5620 5620 5620 5620 5620 5621 5621 5621 5620
5669 5667 5664 5661 5659 5657 5655 5653 5651 5649 5646 5644 5641 5638 5636 5633 5630 5628 5626 5625 5622 5621 5619 5618 5617 5616 5615 5614 5614 5614 5613 5613 5613 5613 5613 5614 5615 5614 5614 5614 5615 5615 5615
5663 5660 5657 5654 5652 5650 5648 5647 5645 5643 5641 5638 5635 5632 5629 5627 5624 5622 5620 5618 5616 5614 5612 5611 5609 5609 5608 5608 5608 5608 5607 5607 5607 5607 5607 5608 5608 5608 5608 5609 5609 5609 5610
5656 5653 5649 5647 5645 5643 5641 5639 5637 5636 5634 5631 5628 5625 5622 5620 5617 5615 5613 5611 5609 5606 5605 5603 5602 5602 5602 5601 5601 5601 5601 5600 5601 5601 5601 5602 5602 5603 5602 5603 5603 5603 5602
5649 5646 5643 5640 5638 5636 5634 5632 5630 5628 5626 5624 5621 5618 5616 5613 5610 5607 5605 5603 5601 5599 5597 5595 5594 5594 5594 5595 5594 5594 5594 5593 5594 5594 5595 5596 5597 5598 5598 5598 5597 5596 5595
5642 5640 5637 5634 5631 5629 5628 5626 5623 5621 5619 5616 5613 5610 5608 5605 5603 5600 5597 5595 5592 5590 5589 5587 5586 5586 5587 5588 5588 5587 5586 5586 5586 5587 5588 5589 5590 5591 5592 5593 5593 5592 5591
5636 5633 5630 5628 5625 5624 5622 5618 5616 5614 5611 5609 5606 5603 5600 5598 5595 5593 5589 5586 5584 5582 5580 5579 5578 5578 5579 5580 5581 5580 5579 5578 5579 5579 5580 5582 5584 5584 5584 5585 5585 5585 5586
5630 5627 5624 5622 5620 5618 5615 5613 5608 5606 5604 5601 5598 5596 5593 5590 5588 5585 5582 5579 5576 5574 5572 5571 5570 5570 5571 5572 5572 5572 5571 5571 5571 5572 5573 5573 5575 5577 5577 5577 5577 5577 5577
5624 5620 5618 5615 5612 5610 5607 5604 5601 5598 5596 5594 5591 5589 5586 5584 5581 5578 5575 5572 5569 5567 5564 5563 5562 5562 5562 5564 5564 5564 5563 5563 5564 5565 5566 5566 5567 5569 5569 5569 5568 5569 5569
5616 5614 5611 5608 5605 5602 5599 5596 5593 5590 5589 5587 5585 5582 5580 5577 5574 5571 5569 5566 5563 5560 5558 5556 5555 5554 5555 5556 5557 5557 5556 5555 5556 5557 5558 5558 5559 5561 5561 5560 5560 5561 5562
5609 5606 5603 5600 5597 5594 5592 5588 5586 5584 5583 5580 5578 5575 5573 5570 5568 5565 5562 5559 5556 5553 5550 5548 5548 5547 5548 5548 5549 5549 5548 5547 5548 5548 5549 5550 5552 5553 5553 5553 5553 5554 5554
5600 5598 5595 5592 5589 5586 5584 5580 5578 5577 5575 5573 5570 5567 5565 5563 5561 5557 5554 5552 5549 5546 5544 5542 5541 5540 5540 5541 5541 5541 5541 5541 5539 5540 5541 5542 5543 5544 5544 5544 5545 5546 5545
5592 5590 5587 5584 5581 5578 5577 5574 5572 5570 5567 5565 5562 5560 5558 5556 5553 5550 5547 5544 5542 5540 5538 5536 5534 5533 5533 5532 5533 5533 5533 5532 5531 5532 5533 5533 5533 5534 5534 5535 5536 5536 5535
5584 5582 5579 5576 5574 5572 5570 5569 5566 5563 5561 5558 5555 5553 5551 5548 5546 5544 5541 5538 5536 5534 5532 5530 5528 5526 5525 5524 5524 5524 5523 5523 5522 5521 5522 5523 5523 5523 5524 5524 5525 5525 5525
5576 5574 5572 5569 5567 5565 5563 5562 5560 5557 5554 5551 5548 5546 5544 5542 5539 5537 5534 5533 5531 5529 5527 5525 5523 5520 5518 5519 5518 5516 5515 5514 5513 5512 5511 5511 5511 5511 5511 5512 5513 5514 5513
5569 5566 5564 5562 5560 5559 5557 5556 5553 5551 5548 5544 5542 5539 5537 5534 5532 5530 5527 5526 5524 5523 5522 5519 5517 5515 5514 5513 5512 5510 5509 5507 5505 5503 5501 5501 5501 5501 5501 5501 5501 5502 5503